Location: Home
(42.5358°N, 72.7383°W)
Time: 18:57:50
(UTC-05:00)

A-11 Canister half - Pass Details

Date: 03 December 2021
Orbit: 1524 x 1684 km, 47.3° (Epoch: 23 January)

Event Time Altitude Azimuth Distance (km) Brightness Sun altitude
Rises 06:33:29 0° 293° (WNW) 4,918 - -5.7°
Exits shadow 06:35:26 - 293° (WNW) 4,302 10.6 -5.4°
Reaches altitude 10° 06:36:40 10° 293° (WNW) 3,915 10.4 -5.2°
Maximum altitude 06:46:44 87° 207° (SSW) 1,630 9.2 -3.5°
Drops below altitude 10° 06:56:25 10° 119° (ESE) 3,782 13.3 -2.0°
Sets 06:59:27 0° 119° (ESE) 4,745 16.0 -1.5°
